Bennington, VT

6:15 PM EDT on September 24, 2017 (GMT -0400)
Morse State

Weather History for KDDH - May, 2012

Change the Weather History Date:

Sunday, May 13, 2012

  Actual Average Record
Temperature  
Mean Temperature 63 °F 54 °F  
Max Temperature 78 °F 66 °F 82 °F (2004)
Min Temperature 47 °F 42 °F 28 °F (1999)
Degree Days  
Heating Degree Days 2 11  
Month to date heating degree days 134 163  
Since 1 July heating degree days 5034 6986  
Cooling Degree Days 0 0  
Month to date cooling degree days 0 0  
Year to date cooling degree days 6 3  
Growing Degree Days 12 (Base 50)    
Moisture  
Dew Point 49 °F    
Average Humidity 63    
Maximum Humidity 93    
Minimum Humidity 33    
Precipitation  
Precipitation 0.00 in 0.11 in 1.10 in (2017)
Month to date precipitation 3.39 1.33  
Year to date precipitation 9.65 12.74  
Sea Level Pressure  
Sea Level Pressure 30.11 in    
Wind  
Wind Speed 2 mph (West)    
Max Wind Speed 10 mph    
Max Gust Speed 17 mph    
Visibility 10 miles    
Events      
T = Trace of Precipitation, MM = Missing Value Source: NWS Daily Summary

Daily Weather History Graph

Daily Weather History Graph

Search for Another Location

Airport or City:

Trip Planner

Search our weather history database for the weather conditions in past years. The results will help you decide how hot, cold, wet, or windy it might be!

Date:

Astronomy

May. 13, 2012 Rise Set
Actual Time 5:31 AM EDT 8:07 PM EDT
Civil Twilight 4:59 AM EDT 8:40 PM EDT
Nautical Twilight 4:18 AM EDT 9:20 PM EDT
Astronomical Twilight 3:32 AM EDT 10:07 PM EDT
Moon 1:45 AM EDT (5/13) 1:16 PM EDT (5/13)
Length of Visible Light 15h 40m
Length of Day
14h 35m
Last Quarter, 42% of the Moon is Illuminated
May 13
Last Quarter
May 20
New
May 28
First Quarter
Jun 4
Full
Jun 11
Last Quarter

Hourly Weather History & Observations

Time (EDT) Temp. Dew Point Humidity Pressure Visibility Wind Dir Wind Speed Gust Speed Precip Events Conditions
12:54 AM 53.1 °F 46.0 °F 77% 30.13 in 10.0 mi Calm Calm - N/A   Partly Cloudy
1:54 AM 53.1 °F 46.0 °F 77% 30.13 in 10.0 mi Calm Calm - N/A   Mostly Cloudy
2:54 AM 54.0 °F 46.9 °F 77% 30.13 in 10.0 mi Calm Calm - N/A   Overcast
3:54 AM 50.0 °F 46.9 °F 89% 30.14 in 10.0 mi Calm Calm - N/A   Clear
4:54 AM 48.9 °F 46.0 °F 90% 30.13 in 10.0 mi Calm Calm - N/A   Clear
5:54 AM 46.9 °F 45.0 °F 93% 30.15 in 10.0 mi Calm Calm - N/A   Clear
6:54 AM 52.0 °F 48.0 °F 86% 30.16 in 10.0 mi Calm Calm - N/A   Clear
8:54 AM 62.1 °F 51.1 °F 67% 30.17 in 10.0 mi Calm Calm - N/A   Unknown
9:54 AM 66.0 °F 44.1 °F 45% 30.16 in 10.0 mi West 3.5 mph - N/A   Clear
11:54 AM 73.9 °F 51.1 °F 45% 30.13 in 10.0 mi Variable 4.6 mph - N/A   Clear
1:54 PM 75.9 °F 50.0 °F 40% 30.11 in 10.0 mi West 6.9 mph 17.3 mph N/A   Partly Cloudy
2:54 PM 77.0 °F 46.9 °F 34% 30.09 in 10.0 mi Variable 5.8 mph - N/A   Partly Cloudy
3:54 PM 77.0 °F 48.0 °F 36% 30.07 in 10.0 mi West 4.6 mph - N/A   Partly Cloudy
4:54 PM 75.9 °F 46.9 °F 36% 30.06 in 10.0 mi West 6.9 mph - N/A   Clear
5:54 PM 75.0 °F 48.0 °F 38% 30.07 in 10.0 mi NW 5.8 mph - N/A   Scattered Clouds
6:54 PM 73.9 °F 48.9 °F 41% 30.07 in 10.0 mi Calm Calm - N/A   Scattered Clouds
7:54 PM 66.0 °F 55.9 °F 70% 30.07 in 10.0 mi SSW 4.6 mph - N/A   Mostly Cloudy
8:54 PM 64.0 °F 54.0 °F 70% 30.09 in 10.0 mi Calm Calm - N/A   Partly Cloudy
9:54 PM 64.0 °F 54.0 °F 70% 30.11 in 10.0 mi North 4.6 mph - N/A   Clear
10:54 PM 63.0 °F 53.1 °F 70% 30.10 in 10.0 mi Calm Calm - N/A   Clear
11:54 PM 62.1 °F 53.1 °F 72% 30.10 in 10.0 mi Variable 3.5 mph - N/A   Clear